Regional Weather Roundup
Issued by NWS

Home | Current Version | Previous Version | Text Only | Print | Product List | Glossary Off
Versions: 1 2 3 4 5 6 7 8 9 10 11 12 13 14 15 16 17 18 19 20 21 22 23 24 25 26 27 28 29 30 31 32 33 34 35 36 37 38 39 40 41 42 43 44 45 46 47 48 49 50

591
ASUS43 KTOP 231908
RWRKS

WEATHER ROUNDUP FOR KANSAS
NATIONAL WEATHER SERVICE GOODLAND KS
200 PM CDT SUN APR 23 2017

NOTE:  "FAIR" INDICATES FEW OR NO CLOUDS BELOW 12,000 FEET WITH NO
SIGNIFICANT WEATHER AND/OR OBSTRUCTIONS TO VISIBILITY.

KSZ001>006-013>018-027>032-041>047-232000-
NORTHWEST KANSAS

CITY           SKY/WX    TMP DP  RH WIND       PRES   REMARKS
GOODLAND       SUNNY     64  39  39 S26G41    29.95F
HILL CITY      SUNNY     69  28  21 S20G30    30.04F
RUSSELL        SUNNY     66  32  28 S16G24    30.08F
$$

KSZ061>065-074>080-084>089-232000-
SOUTHWEST KANSAS

CITY           SKY/WX    TMP DP  RH WIND       PRES   REMARKS
DODGE CITY     SUNNY     65  32  29 S15G25    30.09F
ELKHART          N/A     64  36  35 S16         N/A
GARDEN CITY    SUNNY     66  34  30 S23G30    30.06F
PRATT          CLOUDY    62  35  36 SW13      30.13F
$$

KSZ066>073-081>083-090>101-232000-
SOUTHEAST KANSAS

CITY           SKY/WX    TMP DP  RH WIND       PRES   REMARKS
CHANUTE        SUNNY     66  36  32 NW7       30.14F
COFFEYVILLE    SUNNY     66  37  34 VRB6      30.13F
HUTCHINSON     SUNNY     65  35  33 VRB5      30.12F
MEDICINE LODGE   N/A     65  33  30 S8        30.13F
PARSONS        SUNNY     66  40  38 N8        30.14F
WICHITA INTL   MOSUNNY   65  33  30 VRB7      30.12F
WICHITA JABRA  SUNNY     65  31  28 CALM      30.13F
WICHITA MCCONL SUNNY     65  29  25 SW7       30.13F
WINFIELD       SUNNY     64  34  32 VRB6      30.15F
$$

KSZ007>012-019>026-033>040-048>060-102>105-232000-
NORTHEAST KANSAS

CITY           SKY/WX    TMP DP  RH WIND       PRES   REMARKS
CONCORDIA      SUNNY     65  37  35 VRB5G18   30.10F
EMPORIA        SUNNY     65  38  36 CALM      30.13F
LAWRENCE       SUNNY     68  33  27 VRB6      30.12F
MANHATTAN      SUNNY     68  33  27 VRB5      30.11F
MARYSVILLE     SUNNY     68  34  28 S10       30.10F
OLATHE IND     SUNNY     66  33  29 NW6       30.12F
OLATHE EXE     SUNNY     66  32  28 CALM      30.12F
SALINA         SUNNY     68  36  30 VRB3      30.12F
TOPEKA BILLARD SUNNY     68  36  30 VRB5      30.12F
TOPEKA FORBES  SUNNY     68  35  29 SW8       30.12F
$$




USA.gov is the U.S. government's official web portal to all federal, state and local government web resources and services.